Time,TemperatureF,DewpointF,PressureIn,WindDirection,WindDirectionDegrees,WindSpeedMPH,WindSpeedGustMPH,Humidity,HourlyPrecipIn,Conditions,Clouds,dailyrainin,SoftwareType,DateUTC
2013-07-13 00:00:00,78.1,61.5,29.77,SE,135,15.0,19.0,57,0.00,,,0.00,meteohub,2013-07-13 05:00:00,
2013-07-13 00:05:00,78.1,61.5,29.78,South,180,13.0,19.0,57,0.00,,,0.00,meteohub,2013-07-13 05:05:00,
2013-07-13 00:10:00,77.9,61.5,29.79,South,180,5.0,18.0,57,0.00,,,0.00,meteohub,2013-07-13 05:10:00,
2013-07-13 00:16:00,77.7,61.7,29.78,South,180,8.0,15.0,58,0.00,,,0.00,meteohub,2013-07-13 05:16:00,
2013-07-13 00:21:00,77.5,61.5,29.79,SW,225,6.0,14.0,58,0.00,,,0.00,meteohub,2013-07-13 05:21:00,
2013-07-13 00:26:00,77.4,61.9,29.79,South,180,6.0,8.0,59,0.00,,,0.00,meteohub,2013-07-13 05:26:00,
2013-07-13 00:31:00,77.4,62.4,29.79,SE,135,7.0,8.0,60,0.00,,,0.00,meteohub,2013-07-13 05:31:00,
2013-07-13 00:36:00,77.0,62.1,29.79,SE,135,10.0,10.0,60,0.00,,,0.00,meteohub,2013-07-13 05:36:00,
2013-07-13 00:41:00,77.0,62.1,29.78,SE,135,10.0,11.0,60,0.00,,,0.00,meteohub,2013-07-13 05:41:00,
2013-07-13 00:46:00,77.0,62.1,29.79,South,180,11.0,13.0,60,0.00,,,0.00,meteohub,2013-07-13 05:46:00,
2013-07-13 00:51:00,77.0,62.1,29.78,South,180,9.0,13.0,60,0.00,,,0.00,meteohub,2013-07-13 05:51:00,
2013-07-13 00:56:00,76.1,61.7,29.77,SE,135,13.0,13.0,61,0.00,,,0.00,meteohub,2013-07-13 05:56:00,
2013-07-13 01:01:00,74.1,61.5,29.77,South,180,15.0,17.0,65,0.00,,,0.00,meteohub,2013-07-13 06:01:00,
2013-07-13 01:06:00,73.4,61.7,29.76,South,180,15.0,19.0,67,0.00,,,0.00,meteohub,2013-07-13 06:06:00,
2013-07-13 01:11:00,73.2,62.1,29.77,South,180,14.0,19.0,68,0.00,,,0.00,meteohub,2013-07-13 06:11:00,
2013-07-13 01:17:00,72.9,62.1,29.77,South,180,11.0,19.0,69,0.00,,,0.00,meteohub,2013-07-13 06:17:00,
2013-07-13 01:22:00,72.9,62.4,29.77,South,180,12.0,18.0,70,0.00,,,0.00,meteohub,2013-07-13 06:22:00,
2013-07-13 01:27:00,72.9,62.4,29.77,South,180,12.0,17.0,70,0.00,,,0.00,meteohub,2013-07-13 06:27:00,
2013-07-13 01:32:00,72.9,63.0,29.77,South,180,14.0,17.0,71,0.00,,,0.00,meteohub,2013-07-13 06:32:00,
2013-07-13 01:37:00,72.9,63.0,29.76,South,180,15.0,15.0,71,0.00,,,0.00,meteohub,2013-07-13 06:37:00,
2013-07-13 01:42:00,73.2,63.3,29.77,South,180,14.0,17.0,71,0.00,,,0.00,meteohub,2013-07-13 06:42:00,
2013-07-13 01:47:00,73.2,63.3,29.77,SSW,203,15.0,18.0,71,0.00,,,0.00,meteohub,2013-07-13 06:47:00,
2013-07-13 01:52:00,73.4,63.9,29.76,South,180,15.0,18.0,72,0.00,,,0.00,meteohub,2013-07-13 06:52:00,
2013-07-13 01:57:00,73.6,64.0,29.77,SSW,203,15.0,18.0,72,0.00,,,0.00,meteohub,2013-07-13 06:57:00,
2013-07-13 02:02:00,73.8,63.7,29.77,South,180,16.0,17.0,71,0.00,,,0.00,meteohub,2013-07-13 07:02:00,
2013-07-13 02:08:00,73.9,63.9,29.77,SSE,158,15.0,17.0,71,0.00,,,0.00,meteohub,2013-07-13 07:08:00,
2013-07-13 02:13:00,74.1,63.7,29.78,South,180,17.0,18.0,70,0.00,,,0.00,meteohub,2013-07-13 07:13:00,
2013-07-13 02:18:00,74.3,63.9,29.78,South,180,16.0,18.0,70,0.00,,,0.00,meteohub,2013-07-13 07:18:00,
2013-07-13 02:23:00,74.3,63.9,29.78,South,180,15.0,18.0,70,0.00,,,0.00,meteohub,2013-07-13 07:23:00,
2013-07-13 02:28:00,74.5,63.7,29.78,South,180,12.0,17.0,69,0.00,,,0.00,meteohub,2013-07-13 07:28:00,
2013-07-13 02:33:00,74.5,63.7,29.77,South,180,15.0,17.0,69,0.00,,,0.00,meteohub,2013-07-13 07:33:00,
2013-07-13 02:38:00,74.7,63.9,29.77,South,180,14.0,16.0,69,0.00,,,0.00,meteohub,2013-07-13 07:38:00,
2013-07-13 02:43:00,74.7,63.9,29.77,South,180,15.0,16.0,69,0.00,,,0.00,meteohub,2013-07-13 07:43:00,
2013-07-13 02:48:00,74.7,63.9,29.78,South,180,13.0,16.0,69,0.00,,,0.00,meteohub,2013-07-13 07:48:00,
2013-07-13 02:53:00,74.8,64.0,29.77,South,180,16.0,17.0,69,0.00,,,0.00,meteohub,2013-07-13 07:53:00,
2013-07-13 02:59:00,75.0,63.7,29.77,South,180,13.0,17.0,68,0.00,,,0.00,meteohub,2013-07-13 07:59:00,
2013-07-13 03:04:00,75.0,63.7,29.76,South,180,14.0,17.0,68,0.00,,,0.00,meteohub,2013-07-13 08:04:00,
2013-07-13 03:09:00,75.2,63.5,29.76,South,180,15.0,17.0,67,0.00,,,0.00,meteohub,2013-07-13 08:09:00,
2013-07-13 03:14:00,75.2,63.5,29.75,South,180,16.0,16.0,67,0.00,,,0.00,meteohub,2013-07-13 08:14:00,
2013-07-13 03:19:00,75.2,63.5,29.76,South,180,14.0,16.0,67,0.00,,,0.00,meteohub,2013-07-13 08:19:00,
2013-07-13 03:24:00,75.2,63.5,29.76,South,180,17.0,17.0,67,0.00,,,0.00,meteohub,2013-07-13 08:24:00,
2013-07-13 03:29:00,75.2,63.1,29.76,South,180,17.0,17.0,66,0.00,,,0.00,meteohub,2013-07-13 08:29:00,
2013-07-13 03:34:00,75.4,63.1,29.75,South,180,19.0,19.0,66,0.00,,,0.00,meteohub,2013-07-13 08:34:00,
2013-07-13 03:39:00,75.4,63.1,29.76,South,180,14.0,19.0,66,0.00,,,0.00,meteohub,2013-07-13 08:39:00,
2013-07-13 03:44:00,75.4,63.1,29.75,South,180,18.0,19.0,66,0.00,,,0.00,meteohub,2013-07-13 08:44:00,
2013-07-13 03:49:00,75.6,63.3,29.75,South,180,17.0,20.0,66,0.00,,,0.00,meteohub,2013-07-13 08:49:00,
2013-07-13 03:55:00,75.6,63.3,29.76,South,180,19.0,20.0,66,0.00,,,0.00,meteohub,2013-07-13 08:55:00,
2013-07-13 04:00:00,75.6,63.3,29.75,South,180,16.0,20.0,66,0.00,,,0.00,meteohub,2013-07-13 09:00:00,
2013-07-13 04:05:00,75.6,63.3,29.75,South,180,14.0,20.0,66,0.00,,,0.00,meteohub,2013-07-13 09:05:00,
2013-07-13 04:10:00,75.6,63.3,29.75,SW,225,15.0,20.0,66,0.00,,,0.00,meteohub,2013-07-13 09:10:00,
2013-07-13 04:15:00,75.7,63.5,29.75,South,180,16.0,20.0,66,0.00,,,0.00,meteohub,2013-07-13 09:15:00,
2013-07-13 04:20:00,75.7,63.5,29.76,SW,225,17.0,20.0,66,0.00,,,0.00,meteohub,2013-07-13 09:20:00,
2013-07-13 04:25:00,75.9,63.7,29.76,South,180,11.0,19.0,66,0.00,,,0.00,meteohub,2013-07-13 09:25:00,
2013-07-13 04:30:00,76.1,63.9,29.77,SE,135,5.0,19.0,66,0.00,,,0.00,meteohub,2013-07-13 09:30:00,
2013-07-13 04:35:00,76.1,63.9,29.78,North,0,11.0,17.0,66,0.00,,,0.00,meteohub,2013-07-13 09:35:00,
2013-07-13 04:40:00,75.7,63.5,29.78,North,0,10.0,14.0,66,0.00,,,0.00,meteohub,2013-07-13 09:40:00,
2013-07-13 04:46:00,75.4,63.1,29.78,NE,45,9.0,14.0,66,0.00,,,0.00,meteohub,2013-07-13 09:46:00,
2013-07-13 04:51:00,75.2,63.1,29.78,SE,135,4.0,14.0,66,0.00,,,0.00,meteohub,2013-07-13 09:51:00,
2013-07-13 04:56:00,75.2,63.1,29.78,NE,45,5.0,12.0,66,0.00,,,0.00,meteohub,2013-07-13 09:56:00,
2013-07-13 05:01:00,75.2,63.1,29.78,NE,45,8.0,9.0,66,0.00,,,0.00,meteohub,2013-07-13 10:01:00,
2013-07-13 05:06:00,74.5,63.1,29.78,East,90,5.0,8.0,68,0.00,,,0.00,meteohub,2013-07-13 10:06:00,
2013-07-13 05:11:00,73.8,62.6,29.79,East,90,8.0,9.0,68,0.00,,,0.00,meteohub,2013-07-13 10:11:00,
2013-07-13 05:16:00,73.6,62.8,29.79,East,90,8.0,9.0,69,0.00,,,0.00,meteohub,2013-07-13 10:16:00,
2013-07-13 05:21:00,73.0,62.2,29.79,East,90,7.0,9.0,69,0.00,,,0.00,meteohub,2013-07-13 10:21:00,
2013-07-13 05:26:00,72.3,61.5,29.79,East,90,5.0,8.0,69,0.00,,,0.00,meteohub,2013-07-13 10:26:00,
2013-07-13 05:31:00,72.0,61.7,29.81,NE,45,9.0,9.0,70,0.00,,,0.00,meteohub,2013-07-13 10:31:00,
2013-07-13 05:36:00,71.8,61.9,29.81,East,90,8.0,11.0,71,0.00,,,0.00,meteohub,2013-07-13 10:36:00,
2013-07-13 05:41:00,71.4,61.9,29.81,SE,135,11.0,12.0,72,0.00,,,0.00,meteohub,2013-07-13 10:41:00,
2013-07-13 05:47:00,71.2,62.1,29.81,SE,135,9.0,12.0,73,0.00,,,0.00,meteohub,2013-07-13 10:47:00,
2013-07-13 05:52:00,71.2,62.1,29.81,East,90,11.0,12.0,73,0.00,,,0.00,meteohub,2013-07-13 10:52:00,
2013-07-13 05:57:00,71.4,62.2,29.81,NE,45,9.0,12.0,73,0.00,,,0.00,meteohub,2013-07-13 10:57:00,
2013-07-13 06:02:00,71.4,62.2,29.81,SE,135,11.0,12.0,73,0.00,,,0.00,meteohub,2013-07-13 11:02:00,
2013-07-13 06:07:00,71.4,62.2,29.81,SE,135,14.0,14.0,73,0.00,,,0.00,meteohub,2013-07-13 11:07:00,
2013-07-13 06:12:00,71.4,62.2,29.82,SE,135,14.0,15.0,73,0.00,,,0.00,meteohub,2013-07-13 11:12:00,
2013-07-13 06:17:00,71.4,62.2,29.81,SE,135,11.0,15.0,73,0.00,,,0.00,meteohub,2013-07-13 11:17:00,
2013-07-13 06:22:00,71.4,62.2,29.80,SE,135,15.0,15.0,73,0.00,,,0.00,meteohub,2013-07-13 11:22:00,
2013-07-13 06:27:00,71.4,62.2,29.81,SE,135,13.0,15.0,73,0.00,,,0.00,meteohub,2013-07-13 11:27:00,
2013-07-13 06:32:00,71.6,62.1,29.81,SE,135,15.0,15.0,72,0.00,,,0.00,meteohub,2013-07-13 11:32:00,
2013-07-13 06:37:00,71.6,62.1,29.81,SE,135,13.0,15.0,72,0.00,,,0.00,meteohub,2013-07-13 11:37:00,
2013-07-13 06:42:00,71.6,62.1,29.81,SE,135,14.0,16.0,72,0.00,,,0.00,meteohub,2013-07-13 11:42:00,
2013-07-13 06:47:00,71.6,62.1,29.82,SE,135,15.0,17.0,72,0.00,,,0.00,meteohub,2013-07-13 11:47:00,
2013-07-13 06:53:00,71.6,62.1,29.82,SE,135,15.0,17.0,72,0.00,,,0.00,meteohub,2013-07-13 11:53:00,
2013-07-13 06:58:00,71.6,62.1,29.83,SE,135,15.0,17.0,72,0.00,,,0.00,meteohub,2013-07-13 11:58:00,
2013-07-13 07:03:00,71.4,62.2,29.83,SE,135,17.0,18.0,73,0.00,,,0.00,meteohub,2013-07-13 12:03:00,
2013-07-13 07:08:00,71.4,62.2,29.83,SE,135,17.0,18.0,73,0.00,,,0.00,meteohub,2013-07-13 12:08:00,
2013-07-13 07:13:00,71.4,62.2,29.83,SE,135,21.0,21.0,73,0.00,,,0.00,meteohub,2013-07-13 12:13:00,
2013-07-13 07:18:00,71.2,62.1,29.83,SE,135,17.0,21.0,73,0.00,,,0.00,meteohub,2013-07-13 12:18:00,
2013-07-13 07:23:00,71.2,62.1,29.83,SE,135,17.0,21.0,73,0.00,,,0.00,meteohub,2013-07-13 12:23:00,
2013-07-13 07:28:00,71.2,62.1,29.83,SE,135,18.0,21.0,73,0.00,,,0.00,meteohub,2013-07-13 12:28:00,
2013-07-13 07:33:00,71.2,62.1,29.83,SE,135,22.0,22.0,73,0.00,,,0.00,meteohub,2013-07-13 12:33:00,
2013-07-13 07:38:00,71.2,62.1,29.83,SE,135,16.0,21.0,73,0.00,,,0.00,meteohub,2013-07-13 12:38:00,
2013-07-13 07:43:00,71.4,62.2,29.82,SE,135,18.0,22.0,73,0.00,,,0.00,meteohub,2013-07-13 12:43:00,
2013-07-13 07:48:00,71.6,61.7,29.83,SE,135,19.0,22.0,71,0.00,,,0.00,meteohub,2013-07-13 12:48:00,
2013-07-13 07:54:00,71.6,61.7,29.83,SE,135,21.0,22.0,71,0.00,,,0.00,meteohub,2013-07-13 12:54:00,
2013-07-13 07:59:00,71.8,61.9,29.83,SSE,158,20.0,21.0,71,0.00,,,0.00,meteohub,2013-07-13 12:59:00,
2013-07-13 08:04:00,71.8,61.9,29.83,SE,135,21.0,21.0,71,0.00,,,0.00,meteohub,2013-07-13 13:04:00,
2013-07-13 08:09:00,71.8,61.9,29.84,SE,135,21.0,25.0,71,0.00,,,0.00,meteohub,2013-07-13 13:09:00,
2013-07-13 08:14:00,71.6,61.7,29.84,SE,135,17.0,25.0,71,0.00,,,0.00,meteohub,2013-07-13 13:14:00,
2013-07-13 08:19:00,71.6,61.7,29.85,SE,135,21.0,25.0,71,0.00,,,0.00,meteohub,2013-07-13 13:19:00,
2013-07-13 08:24:00,71.4,62.2,29.85,SE,135,17.0,26.0,73,0.00,,,0.00,meteohub,2013-07-13 13:24:00,
2013-07-13 08:29:00,71.4,62.2,29.85,SE,135,19.0,26.0,73,0.00,,,0.00,meteohub,2013-07-13 13:29:00,
2013-07-13 08:34:00,71.4,62.2,29.85,SE,135,19.0,26.0,73,0.00,,,0.00,meteohub,2013-07-13 13:34:00,
2013-07-13 08:39:00,71.4,62.8,29.85,SSE,158,20.0,25.0,74,0.00,,,0.00,meteohub,2013-07-13 13:39:00,
2013-07-13 08:44:00,71.6,62.4,29.85,SE,135,17.0,25.0,73,0.00,,,0.00,meteohub,2013-07-13 13:44:00,
2013-07-13 08:49:00,71.8,62.6,29.85,SE,135,19.0,25.0,73,0.00,,,0.00,meteohub,2013-07-13 13:49:00,
2013-07-13 08:55:00,71.8,62.6,29.85,SE,135,20.0,22.0,73,0.00,,,0.00,meteohub,2013-07-13 13:55:00,
2013-07-13 09:00:00,71.8,62.6,29.84,SE,135,21.0,23.0,73,0.00,,,0.00,meteohub,2013-07-13 14:00:00,
2013-07-13 09:05:00,71.8,62.6,29.84,SE,135,23.0,27.0,73,0.00,,,0.00,meteohub,2013-07-13 14:05:00,
2013-07-13 09:10:00,72.0,63.1,29.83,SE,135,24.0,28.0,74,0.00,,,0.00,meteohub,2013-07-13 14:10:00,
2013-07-13 09:15:00,72.0,62.8,29.83,SSE,158,20.0,26.0,73,0.00,,,0.00,meteohub,2013-07-13 14:15:00,
2013-07-13 09:20:00,71.8,62.6,29.83,South,180,30.0,30.0,73,0.00,,,0.00,meteohub,2013-07-13 14:20:00,
2013-07-13 09:25:00,71.6,62.1,29.84,SE,135,27.0,30.0,72,0.00,,,0.00,meteohub,2013-07-13 14:25:00,
2013-07-13 09:30:00,71.6,62.1,29.85,SE,135,21.0,32.0,72,0.00,,,0.00,meteohub,2013-07-13 14:30:00,
2013-07-13 09:35:00,71.8,62.2,29.85,SE,135,21.0,32.0,72,0.00,,,0.00,meteohub,2013-07-13 14:35:00,
2013-07-13 09:40:00,72.1,62.6,29.84,SE,135,25.0,32.0,72,0.00,,,0.00,meteohub,2013-07-13 14:40:00,
2013-07-13 09:45:00,72.1,62.2,29.84,SE,135,23.0,26.0,71,0.00,,,0.00,meteohub,2013-07-13 14:45:00,
2013-07-13 09:50:00,72.0,62.1,29.84,SE,135,25.0,27.0,71,0.00,,,0.00,meteohub,2013-07-13 14:50:00,
2013-07-13 09:55:00,72.0,62.1,29.85,SE,135,19.0,27.0,71,0.00,,,0.00,meteohub,2013-07-13 14:55:00,
2013-07-13 10:01:00,72.1,62.2,29.85,SE,135,24.0,27.0,71,0.00,,,0.00,meteohub,2013-07-13 15:01:00,
2013-07-13 10:06:00,72.0,62.1,29.85,SE,135,23.0,27.0,71,0.00,,,0.00,meteohub,2013-07-13 15:06:00,
2013-07-13 10:11:00,72.1,61.9,29.86,South,180,22.0,26.0,70,0.00,,,0.00,meteohub,2013-07-13 15:11:00,
2013-07-13 10:16:00,72.3,62.1,29.86,SSE,158,24.0,25.0,70,0.00,,,0.00,meteohub,2013-07-13 15:16:00,
2013-07-13 10:21:00,72.3,62.1,29.86,SE,135,21.0,27.0,70,0.00,,,0.00,meteohub,2013-07-13 15:21:00,
2013-07-13 10:26:00,72.3,62.1,29.86,South,180,22.0,27.0,70,0.00,,,0.00,meteohub,2013-07-13 15:26:00,
2013-07-13 10:32:00,72.1,61.9,29.87,SE,135,23.0,27.0,70,0.00,,,0.00,meteohub,2013-07-13 15:32:00,
2013-07-13 10:37:00,72.7,62.8,29.86,South,180,25.0,25.0,71,0.00,,,0.00,meteohub,2013-07-13 15:37:00,
2013-07-13 10:42:00,73.2,62.4,29.87,South,180,26.0,27.0,69,0.00,,,0.00,meteohub,2013-07-13 15:42:00,
2013-07-13 10:47:00,72.5,61.3,29.87,South,180,24.0,27.0,68,0.00,,,0.00,meteohub,2013-07-13 15:47:00,
2013-07-13 10:52:00,72.3,61.5,29.87,South,180,24.0,30.0,69,0.00,,,0.00,meteohub,2013-07-13 15:52:00,
2013-07-13 10:57:00,72.9,62.1,29.87,South,180,27.0,30.0,69,0.00,,,0.00,meteohub,2013-07-13 15:57:00,
2013-07-13 11:02:00,72.9,61.7,29.88,South,180,23.0,27.0,68,0.00,,,0.00,meteohub,2013-07-13 16:02:00,
2013-07-13 11:07:00,72.7,61.5,29.88,SE,135,18.0,27.0,68,0.00,,,0.00,meteohub,2013-07-13 16:07:00,
2013-07-13 11:12:00,72.3,61.2,29.88,South,180,21.0,27.0,68,0.00,,,0.00,meteohub,2013-07-13 16:12:00,
2013-07-13 11:17:00,72.3,61.5,29.87,South,180,22.0,26.0,69,0.00,,,0.00,meteohub,2013-07-13 16:17:00,
2013-07-13 11:22:00,72.5,61.7,29.88,SSE,158,19.0,23.0,69,0.00,,,0.00,meteohub,2013-07-13 16:22:00,
2013-07-13 11:28:00,72.5,61.7,29.88,South,180,20.0,23.0,69,0.00,,,0.00,meteohub,2013-07-13 16:28:00,
2013-07-13 11:33:00,72.1,61.0,29.88,South,180,23.0,23.0,68,0.00,,,0.00,meteohub,2013-07-13 16:33:00,
2013-07-13 11:38:00,72.0,60.8,29.88,SSE,158,19.0,26.0,68,0.00,,,0.00,meteohub,2013-07-13 16:38:00,
2013-07-13 11:43:00,72.1,61.3,29.87,SSE,158,18.0,26.0,69,0.00,,,0.00,meteohub,2013-07-13 16:43:00,
2013-07-13 11:48:00,72.0,60.8,29.87,SSE,158,21.0,26.0,68,0.00,,,0.00,meteohub,2013-07-13 16:48:00,
2013-07-13 11:53:00,71.6,60.4,29.87,SE,135,20.0,23.0,68,0.00,,,0.00,meteohub,2013-07-13 16:53:00,
2013-07-13 11:58:00,71.4,60.8,29.86,South,180,22.0,22.0,69,0.00,,,0.00,meteohub,2013-07-13 16:58:00,
2013-07-13 12:03:00,71.1,60.8,29.85,SE,135,21.0,22.0,70,0.00,,,0.00,meteohub,2013-07-13 17:03:00,
2013-07-13 12:08:00,70.7,60.8,29.84,SE,135,18.0,22.0,71,0.00,,,0.00,meteohub,2013-07-13 17:08:00,
2013-07-13 12:13:00,70.3,60.4,29.83,SE,135,18.0,22.0,71,0.00,,,0.00,meteohub,2013-07-13 17:13:00,
2013-07-13 12:19:00,70.2,60.6,29.81,SE,135,20.0,22.0,72,0.00,,,0.00,meteohub,2013-07-13 17:19:00,
2013-07-13 12:24:00,69.8,60.8,29.78,East,90,21.0,22.0,73,0.00,,,0.00,meteohub,2013-07-13 17:24:00,
2013-07-13 12:29:00,69.8,61.2,29.80,SE,135,17.0,27.0,74,0.00,,,0.00,meteohub,2013-07-13 17:29:00,
2013-07-13 12:34:00,69.8,61.5,29.81,South,180,20.0,27.0,75,0.00,,,0.00,meteohub,2013-07-13 17:34:00,
2013-07-13 12:39:00,69.6,61.7,29.81,South,180,27.0,27.0,76,0.00,,,0.00,meteohub,2013-07-13 17:39:00,
2013-07-13 12:44:00,69.3,61.7,29.82,SSE,158,29.0,29.0,77,0.00,,,0.00,meteohub,2013-07-13 17:44:00,
2013-07-13 12:49:00,69.1,61.9,29.83,South,180,23.0,29.0,78,0.00,,,0.00,meteohub,2013-07-13 17:49:00,
2013-07-13 12:54:00,69.1,62.2,29.82,SE,135,21.0,30.0,79,0.00,,,0.00,meteohub,2013-07-13 17:54:00,
2013-07-13 12:59:00,69.3,62.4,29.82,South,180,20.0,30.0,79,0.00,,,0.00,meteohub,2013-07-13 17:59:00,
2013-07-13 13:04:00,69.6,62.8,29.82,SE,135,21.0,30.0,79,0.00,,,0.00,meteohub,2013-07-13 18:04:00,
2013-07-13 13:09:00,70.3,63.5,29.82,SSE,158,16.0,23.0,79,0.00,,,0.00,meteohub,2013-07-13 18:09:00,
2013-07-13 13:14:00,70.9,64.0,29.82,South,180,19.0,23.0,79,0.00,,,0.00,meteohub,2013-07-13 18:14:00,
2013-07-13 13:20:00,71.4,63.9,29.82,South,180,22.0,25.0,77,0.00,,,0.00,meteohub,2013-07-13 18:20:00,
2013-07-13 13:25:00,72.0,63.7,29.82,SE,135,27.0,32.0,75,0.00,,,0.00,meteohub,2013-07-13 18:25:00,
2013-07-13 13:30:00,72.0,63.1,29.82,South,180,25.0,32.0,74,0.00,,,0.00,meteohub,2013-07-13 18:30:00,
2013-07-13 13:35:00,71.6,62.4,29.84,South,180,23.0,32.0,73,0.00,,,0.00,meteohub,2013-07-13 18:35:00,
2013-07-13 13:40:00,71.2,62.6,29.86,South,180,21.0,27.0,74,0.00,,,0.00,meteohub,2013-07-13 18:40:00,
2013-07-13 13:45:00,71.4,62.8,29.87,South,180,13.0,26.0,74,0.00,,,0.00,meteohub,2013-07-13 18:45:00,
2013-07-13 13:50:00,71.8,62.6,29.85,South,180,17.0,24.0,73,0.00,,,0.00,meteohub,2013-07-13 18:50:00,
2013-07-13 13:55:00,71.6,62.4,29.84,South,180,19.0,21.0,73,0.00,,,0.00,meteohub,2013-07-13 18:55:00,
2013-07-13 14:00:00,71.6,62.4,29.83,South,180,17.0,20.0,73,0.00,,,0.00,meteohub,2013-07-13 19:00:00,
2013-07-13 14:05:00,71.8,62.6,29.83,South,180,18.0,20.0,73,0.00,,,0.00,meteohub,2013-07-13 19:05:00,
2013-07-13 14:10:00,72.3,63.5,29.85,SE,135,13.0,20.0,74,0.00,,,0.00,meteohub,2013-07-13 19:10:00,
2013-07-13 14:15:00,72.9,64.0,29.85,South,180,17.0,20.0,74,0.00,,,0.00,meteohub,2013-07-13 19:15:00,
2013-07-13 14:20:00,73.4,64.6,29.85,South,180,15.0,20.0,74,0.00,,,0.00,meteohub,2013-07-13 19:20:00,
2013-07-13 14:26:00,73.9,65.1,29.85,South,180,14.0,20.0,74,0.00,,,0.00,meteohub,2013-07-13 19:26:00,
2013-07-13 14:31:00,74.5,65.7,29.85,South,180,16.0,20.0,74,0.00,,,0.00,meteohub,2013-07-13 19:31:00,
2013-07-13 14:36:00,74.5,64.9,29.85,South,180,16.0,19.0,72,0.00,,,0.00,meteohub,2013-07-13 19:36:00,
2013-07-13 14:41:00,74.3,64.8,29.85,SSE,158,17.0,18.0,72,0.00,,,0.00,meteohub,2013-07-13 19:41:00,
2013-07-13 14:46:00,74.1,64.0,29.85,SE,135,15.0,19.0,71,0.00,,,0.00,meteohub,2013-07-13 19:46:00,
2013-07-13 14:51:00,73.9,63.9,29.86,South,180,15.0,20.0,71,0.00,,,0.00,meteohub,2013-07-13 19:51:00,
2013-07-13 14:56:00,74.3,64.2,29.86,South,180,11.0,20.0,71,0.00,,,0.00,meteohub,2013-07-13 19:56:00,
2013-07-13 15:02:00,74.7,64.6,29.86,South,180,8.0,20.0,71,0.00,,,0.00,meteohub,2013-07-13 20:02:00,
2013-07-13 15:07:00,75.0,64.6,29.85,South,180,8.0,15.0,70,0.00,,,0.00,meteohub,2013-07-13 20:07:00,
2013-07-13 15:12:00,75.7,64.8,29.86,South,180,8.0,13.0,69,0.00,,,0.00,meteohub,2013-07-13 20:12:00,
2013-07-13 15:17:00,76.5,65.5,29.87,South,180,8.0,12.0,69,0.00,,,0.00,meteohub,2013-07-13 20:17:00,
2013-07-13 15:22:00,77.0,65.1,29.86,South,180,10.0,11.0,67,0.00,,,0.00,meteohub,2013-07-13 20:22:00,
2013-07-13 15:27:00,77.5,65.3,29.86,SE,135,8.0,11.0,66,0.00,,,0.00,meteohub,2013-07-13 20:27:00,
2013-07-13 15:32:00,79.0,65.8,29.86,South,180,9.0,11.0,64,0.00,,,0.00,meteohub,2013-07-13 20:32:00,
2013-07-13 15:38:00,79.9,66.2,29.87,SE,135,10.0,11.0,63,0.00,,,0.00,meteohub,2013-07-13 20:38:00,
2013-07-13 15:43:00,81.7,67.5,29.86,SE,135,11.0,11.0,62,0.00,,,0.00,meteohub,2013-07-13 20:43:00,
2013-07-13 15:48:00,82.9,66.2,29.86,SSE,158,10.0,11.0,57,0.00,,,0.00,meteohub,2013-07-13 20:48:00,
2013-07-13 15:53:00,82.2,66.0,29.86,SE,135,8.0,12.0,58,0.00,,,0.00,meteohub,2013-07-13 20:53:00,
2013-07-13 15:58:00,82.0,65.8,29.86,SE,135,8.0,12.0,58,0.00,,,0.00,meteohub,2013-07-13 20:58:00,
2013-07-13 16:03:00,82.0,65.3,29.86,SE,135,8.0,12.0,57,0.00,,,0.00,meteohub,2013-07-13 21:03:00,
2013-07-13 16:08:00,81.5,64.8,29.86,SE,135,9.0,11.0,57,0.00,,,0.00,meteohub,2013-07-13 21:08:00,
2013-07-13 16:14:00,82.0,65.8,29.86,SE,135,10.0,12.0,58,0.00,,,0.00,meteohub,2013-07-13 21:14:00,
2013-07-13 16:19:00,82.4,64.6,29.86,SE,135,12.0,12.0,55,0.00,,,0.00,meteohub,2013-07-13 21:19:00,
2013-07-13 16:24:00,82.2,65.5,29.86,SE,135,12.0,12.0,57,0.00,,,0.00,meteohub,2013-07-13 21:24:00,
2013-07-13 16:29:00,83.1,64.8,29.86,ESE,113,15.0,15.0,54,0.00,,,0.00,meteohub,2013-07-13 21:29:00,
2013-07-13 16:34:00,83.1,65.3,29.86,SE,135,14.0,15.0,55,0.00,,,0.00,meteohub,2013-07-13 21:34:00,
2013-07-13 16:39:00,84.0,65.7,29.86,SE,135,14.0,15.0,54,0.00,,,0.00,meteohub,2013-07-13 21:39:00,
2013-07-13 16:44:00,82.8,64.4,29.86,East,90,13.0,16.0,54,0.00,,,0.00,meteohub,2013-07-13 21:44:00,
2013-07-13 16:49:00,82.6,64.8,29.86,SE,135,15.0,16.0,55,0.00,,,0.00,meteohub,2013-07-13 21:49:00,
2013-07-13 16:54:00,83.3,64.9,29.86,SE,135,12.0,16.0,54,0.00,,,0.00,meteohub,2013-07-13 21:54:00,
2013-07-13 17:00:00,84.4,65.3,29.86,East,90,15.0,16.0,53,0.00,,,0.00,meteohub,2013-07-13 22:00:00,
2013-07-13 17:05:00,84.0,65.1,29.86,SE,135,15.0,17.0,53,0.00,,,0.00,meteohub,2013-07-13 22:05:00,
2013-07-13 17:10:00,83.8,64.9,29.86,SE,135,11.0,17.0,53,0.00,,,0.00,meteohub,2013-07-13 22:10:00,
2013-07-13 17:15:00,83.8,65.5,29.86,SE,135,16.0,17.0,54,0.00,,,0.00,meteohub,2013-07-13 22:15:00,
2013-07-13 17:20:00,84.0,65.1,29.86,East,90,11.0,17.0,53,0.00,,,0.00,meteohub,2013-07-13 22:20:00,
2013-07-13 17:25:00,84.0,65.1,29.86,SSE,158,15.0,17.0,53,0.00,,,0.00,meteohub,2013-07-13 22:25:00,
2013-07-13 17:30:00,82.9,64.6,29.86,SE,135,15.0,17.0,54,0.00,,,0.00,meteohub,2013-07-13 22:30:00,
2013-07-13 17:35:00,82.2,64.4,29.86,East,90,14.0,17.0,55,0.00,,,0.00,meteohub,2013-07-13 22:35:00,
2013-07-13 17:41:00,82.0,64.8,29.86,SE,135,15.0,17.0,56,0.00,,,0.00,meteohub,2013-07-13 22:41:00,
2013-07-13 17:46:00,82.4,64.6,29.86,SE,135,13.0,18.0,55,0.00,,,0.00,meteohub,2013-07-13 22:46:00,
2013-07-13 17:51:00,83.1,65.3,29.87,SE,135,13.0,18.0,55,0.00,,,0.00,meteohub,2013-07-13 22:51:00,
2013-07-13 17:56:00,83.3,64.9,29.86,SE,135,16.0,17.0,54,0.00,,,0.00,meteohub,2013-07-13 22:56:00,
2013-07-13 18:01:00,83.1,64.8,29.86,SE,135,17.0,17.0,54,0.00,,,0.00,meteohub,2013-07-13 23:01:00,
2013-07-13 18:06:00,82.9,64.6,29.86,SE,135,14.0,17.0,54,0.00,,,0.00,meteohub,2013-07-13 23:06:00,
2013-07-13 18:11:00,83.3,64.9,29.86,SE,135,15.0,17.0,54,0.00,,,0.00,meteohub,2013-07-13 23:11:00,
2013-07-13 18:16:00,83.1,64.8,29.86,SE,135,14.0,17.0,54,0.00,,,0.00,meteohub,2013-07-13 23:16:00,
2013-07-13 18:21:00,82.6,64.2,29.86,SE,135,15.0,17.0,54,0.00,,,0.00,meteohub,2013-07-13 23:21:00,
2013-07-13 18:26:00,82.8,64.4,29.86,SE,135,17.0,17.0,54,0.00,,,0.00,meteohub,2013-07-13 23:26:00,
2013-07-13 18:32:00,82.8,64.4,29.86,SE,135,17.0,17.0,54,0.00,,,0.00,meteohub,2013-07-13 23:32:00,
2013-07-13 18:37:00,82.4,64.0,29.86,SE,135,15.0,17.0,54,0.00,,,0.00,meteohub,2013-07-13 23:37:00,
2013-07-13 18:42:00,82.8,64.9,29.85,SE,135,13.0,17.0,55,0.00,,,0.00,meteohub,2013-07-13 23:42:00,
2013-07-13 18:47:00,83.1,65.3,29.85,SE,135,12.0,17.0,55,0.00,,,0.00,meteohub,2013-07-13 23:47:00,
2013-07-13 18:52:00,83.3,65.5,29.85,SE,135,10.0,17.0,55,0.00,,,0.00,meteohub,2013-07-13 23:52:00,
2013-07-13 18:57:00,83.3,65.5,29.85,SE,135,15.0,16.0,55,0.00,,,0.00,meteohub,2013-07-13 23:57:00,
2013-07-13 19:02:00,83.3,65.5,29.85,SE,135,12.0,16.0,55,0.00,,,0.00,meteohub,2013-07-14 00:02:00,
2013-07-13 19:07:00,83.3,65.5,29.84,SE,135,17.0,17.0,55,0.00,,,0.00,meteohub,2013-07-14 00:07:00,
2013-07-13 19:12:00,82.9,65.1,29.85,SE,135,17.0,17.0,55,0.00,,,0.00,meteohub,2013-07-14 00:12:00,
2013-07-13 19:17:00,82.6,65.3,29.85,SSE,158,17.0,18.0,56,0.00,,,0.00,meteohub,2013-07-14 00:17:00,
2013-07-13 19:22:00,82.6,65.3,29.85,SE,135,16.0,18.0,56,0.00,,,0.00,meteohub,2013-07-14 00:22:00,
2013-07-13 19:28:00,82.4,65.1,29.85,SE,135,15.0,18.0,56,0.00,,,0.00,meteohub,2013-07-14 00:28:00,
2013-07-13 19:33:00,82.0,65.8,29.85,East,90,15.0,17.0,58,0.00,,,0.00,meteohub,2013-07-14 00:33:00,
2013-07-13 19:38:00,81.7,66.0,29.85,SE,135,12.0,17.0,59,0.00,,,0.00,meteohub,2013-07-14 00:38:00,
2013-07-13 19:43:00,81.3,65.7,29.85,SE,135,12.0,16.0,59,0.00,,,0.00,meteohub,2013-07-14 00:43:00,
2013-07-13 19:48:00,81.0,65.3,29.85,SE,135,11.0,15.0,59,0.00,,,0.00,meteohub,2013-07-14 00:48:00,
2013-07-13 19:53:00,80.8,65.1,29.85,SE,135,8.0,15.0,59,0.00,,,0.00,meteohub,2013-07-14 00:53:00,
2013-07-13 19:58:00,80.4,65.7,29.85,SE,135,15.0,15.0,61,0.00,,,0.00,meteohub,2013-07-14 00:58:00,
2013-07-13 20:03:00,79.9,65.3,29.85,SE,135,15.0,15.0,61,0.00,,,0.00,meteohub,2013-07-14 01:03:00,
2013-07-13 20:08:00,79.2,64.6,29.85,SE,135,10.0,17.0,61,0.00,,,0.00,meteohub,2013-07-14 01:08:00,
2013-07-13 20:13:00,79.0,64.8,29.85,SE,135,13.0,17.0,62,0.00,,,0.00,meteohub,2013-07-14 01:13:00,
2013-07-13 20:18:00,78.4,64.8,29.84,South,180,13.0,17.0,63,0.00,,,0.00,meteohub,2013-07-14 01:18:00,
2013-07-13 20:24:00,77.5,64.4,29.84,SE,135,12.0,15.0,64,0.00,,,0.00,meteohub,2013-07-14 01:24:00,
2013-07-13 20:29:00,77.2,64.0,29.84,SE,135,14.0,15.0,64,0.00,,,0.00,meteohub,2013-07-14 01:29:00,
2013-07-13 20:34:00,76.5,64.2,29.85,SE,135,15.0,15.0,66,0.00,,,0.00,meteohub,2013-07-14 01:34:00,
2013-07-13 20:39:00,75.9,63.7,29.85,SE,135,15.0,16.0,66,0.00,,,0.00,meteohub,2013-07-14 01:39:00,
2013-07-13 20:44:00,75.6,63.3,29.84,SE,135,12.0,16.0,66,0.00,,,0.00,meteohub,2013-07-14 01:44:00,
2013-07-13 20:49:00,75.2,63.1,29.85,SE,135,15.0,16.0,66,0.00,,,0.00,meteohub,2013-07-14 01:49:00,
2013-07-13 20:54:00,75.0,63.7,29.85,SE,135,11.0,22.0,68,0.00,,,0.00,meteohub,2013-07-14 01:54:00,
2013-07-13 20:59:00,74.7,63.3,29.84,SE,135,13.0,22.0,68,0.00,,,0.00,meteohub,2013-07-14 01:59:00,
2013-07-13 21:04:00,74.5,63.1,29.84,SE,135,16.0,22.0,68,0.00,,,0.00,meteohub,2013-07-14 02:04:00,
2013-07-13 21:09:00,74.5,63.7,29.84,SE,135,15.0,16.0,69,0.00,,,0.00,meteohub,2013-07-14 02:09:00,
2013-07-13 21:14:00,74.3,63.5,29.85,SE,135,14.0,17.0,69,0.00,,,0.00,meteohub,2013-07-14 02:14:00,
2013-07-13 21:19:00,74.3,63.5,29.85,SE,135,15.0,19.0,69,0.00,,,0.00,meteohub,2013-07-14 02:19:00,
2013-07-13 21:24:00,74.1,63.3,29.85,SE,135,13.0,19.0,69,0.00,,,0.00,meteohub,2013-07-14 02:24:00,
2013-07-13 21:30:00,74.1,63.0,29.85,SE,135,17.0,19.0,68,0.00,,,0.00,meteohub,2013-07-14 02:30:00,
2013-07-13 21:35:00,74.1,63.0,29.84,SE,135,15.0,17.0,68,0.00,,,0.00,meteohub,2013-07-14 02:35:00,
2013-07-13 21:40:00,73.9,62.8,29.85,SE,135,15.0,19.0,68,0.00,,,0.00,meteohub,2013-07-14 02:40:00,
2013-07-13 21:45:00,73.9,62.8,29.86,SE,135,14.0,19.0,68,0.00,,,0.00,meteohub,2013-07-14 02:45:00,
2013-07-13 21:50:00,73.9,62.8,29.86,South,180,13.0,17.0,68,0.00,,,0.00,meteohub,2013-07-14 02:50:00,
2013-07-13 21:56:00,73.8,62.6,29.86,SE,135,17.0,17.0,68,0.00,,,0.00,meteohub,2013-07-14 02:56:00,
2013-07-13 22:01:00,73.8,62.1,29.86,SE,135,15.0,17.0,67,0.00,,,0.00,meteohub,2013-07-14 03:01:00,
2013-07-13 22:06:00,73.9,62.2,29.87,SE,135,14.0,17.0,67,0.00,,,0.00,meteohub,2013-07-14 03:06:00,
2013-07-13 22:11:00,73.9,62.2,29.87,SE,135,13.0,17.0,67,0.00,,,0.00,meteohub,2013-07-14 03:11:00,
2013-07-13 22:16:00,73.8,62.1,29.88,SE,135,11.0,16.0,67,0.00,,,0.00,meteohub,2013-07-14 03:16:00,
2013-07-13 22:21:00,73.8,62.1,29.88,SE,135,12.0,14.0,67,0.00,,,0.00,meteohub,2013-07-14 03:21:00,
2013-07-13 22:26:00,73.6,61.9,29.88,SE,135,11.0,14.0,67,0.00,,,0.00,meteohub,2013-07-14 03:26:00,
2013-07-13 22:31:00,73.6,61.9,29.88,SE,135,13.0,15.0,67,0.00,,,0.00,meteohub,2013-07-14 03:31:00,
2013-07-13 22:36:00,73.6,61.9,29.89,SE,135,11.0,15.0,67,0.00,,,0.00,meteohub,2013-07-14 03:36:00,
2013-07-13 22:42:00,73.4,61.7,29.89,SE,135,15.0,15.0,67,0.00,,,0.00,meteohub,2013-07-14 03:42:00,
2013-07-13 22:47:00,73.2,62.1,29.89,SE,135,11.0,15.0,68,0.00,,,0.00,meteohub,2013-07-14 03:47:00,
2013-07-13 22:52:00,73.2,62.1,29.89,SE,135,12.0,15.0,68,0.00,,,0.00,meteohub,2013-07-14 03:52:00,
2013-07-13 22:57:00,73.0,62.2,29.89,SE,135,13.0,15.0,69,0.00,,,0.00,meteohub,2013-07-14 03:57:00,
2013-07-13 23:01:00,73.0,62.2,29.89,SE,135,15.0,15.0,69,0.00,,,0.00,meteohub,2013-07-14 04:01:00,
2013-07-13 23:02:00,73.0,62.2,29.89,SE,135,14.0,15.0,69,0.00,,,0.00,meteohub,2013-07-14 04:02:00,
2013-07-13 23:07:00,72.9,62.1,29.89,SE,135,14.0,15.0,69,0.00,,,0.00,meteohub,2013-07-14 04:07:00,
2013-07-13 23:13:00,72.7,62.2,29.90,SE,135,14.0,15.0,70,0.00,,,0.00,meteohub,2013-07-14 04:13:00,
2013-07-13 23:18:00,72.5,62.2,29.90,SE,135,11.0,15.0,70,0.00,,,0.00,meteohub,2013-07-14 04:18:00,
2013-07-13 23:23:00,72.3,62.4,29.90,SE,135,11.0,15.0,71,0.00,,,0.00,meteohub,2013-07-14 04:23:00,
2013-07-13 23:28:00,72.3,62.4,29.90,SE,135,14.0,14.0,71,0.00,,,0.00,meteohub,2013-07-14 04:28:00,
2013-07-13 23:33:00,72.1,62.2,29.90,SSE,158,13.0,15.0,71,0.00,,,0.00,meteohub,2013-07-14 04:33:00,
2013-07-13 23:38:00,72.1,62.2,29.90,South,180,12.0,15.0,71,0.00,,,0.00,meteohub,2013-07-14 04:38:00,
2013-07-13 23:43:00,72.0,62.1,29.91,SE,135,13.0,15.0,71,0.00,,,0.00,meteohub,2013-07-14 04:43:00,
2013-07-13 23:49:00,72.0,62.1,29.91,SE,135,13.0,13.0,71,0.00,,,0.00,meteohub,2013-07-14 04:49:00,
2013-07-13 23:54:00,72.0,62.1,29.91,SE,135,13.0,14.0,71,0.00,,,0.00,meteohub,2013-07-14 04:54:00,
2013-07-13 23:59:00,71.8,61.9,29.91,SE,135,15.0,15.0,71,0.00,,,0.00,meteohub,2013-07-14 04:59:00,